STARLINK-36744

Last updated on Mon Mar 30 2026 00:02:05 GMT+0000 (Coordinated Universal Time)

1 67987U 26039B 26088.16668981 .00030958 00000+0 11313-2 0 9991 2 67987 42.9998 299.2691 0001908 269.8240 258.2741 15.27537364 6005
UTC large
Height (km)
Speed (km/s)
/
Latitude / Longitude
Inclination (degrees)
Orbital Period (minutes)
Azimuth
Elevation
Range (km)
Doppler Factor

Next 0 passes for location: London (51.5072 / 0.1276)

Sorry there are no passes over London.